AirNav  
 
 455 users online  

26A Ashland/Lineville Airport
Ashland/Lineville, Alabama, USA

GOING TO ASHLAND/LINEVILLE?


FAA INFORMATION EFFECTIVE 29 MARCH 2018

Location

FAA Identifier: 26A
Lat/Long: 33-17-03.1100N / 085-48-32.2750W
33-17.051833N / 085-48.537917W
33.2841972 / -85.8089653
(estimated)
Elevation: 1065 ft. / 324.6 m (surveyed)
Variation: 01W (1985)
From city: 2 miles NE of central business district of the associated city
Time zone: UTC -5 (UTC -6 during Standard Time)
Zip code: 36251

Airport Operations

Airport use: Open to the public
Activation date: 04/1968
Control tower: no
ARTCC: ATLANTA CENTER
FSS: ANNISTON FLIGHT SERVICE STATION
NOTAMs facility: ANB (NOTAM-D service available)
Attendance: UNATNDD
Wind indicator: lighted
Segmented circle: no
Lights: ACTVT MIRL RY 09/27 AND REIL RY 09 & 27 - CTAF.
Beacon: white-green (lighted land airport)
Operates sunset to sunrise.

Airport Communications

CTAF: 122.9
WX ASOS at ANB (18 nm N): 119.675 (256-835-3931)

Nearby radio navigation aids

VOR radial/distance  VOR name  Freq  Var
TDGr144/21.0TALLADEGA VOR/DME108.8002E
LGCr294/33.4LAGRANGE VORTAC115.6001E

 
NDB name  Hdg/Dist  Freq  Var  ID
CARROLLTON248/37.927804WGPQ --. .--. --.-

Airport Services

Parking: tiedowns
Bottled oxygen: NONE
Bulk oxygen: NONE

Runway Information

Runway 9/27

Dimensions: 4023 x 80 ft. / 1226 x 24 m
Surface: asphalt, in good condition
Weight bearing capacity: 
Single wheel: 20.0
Runway edge lights: medium intensity
Runway edge markings: RY 09/27 MARKINGS FADED.
RUNWAY 9  RUNWAY 27
Latitude: 33-17.051833N33-17.051833N
Longitude: 085-48.932833W085-48.143000W
Elevation: 1065.9 ft.1057.3 ft.
Gradient: 0.1%0.1%
Traffic pattern: leftleft
Displaced threshold: 200 ft.no
Declared distances: TORA:4023 TODA:4023TORA:3823 TODA:4023
Markings: nonprecision, in poor conditionnonprecision, in poor condition
Runway end identifier lights: yesyes
Obstructions: 35 ft. pole, 969 ft. from runway, 18 ft. left of centerline, 21:1 slope to clear
APCH RATIO 33:1 TO DSPLCD THLD.
46 ft. tree, 1317 ft. from runway, 2 ft. right of centerline, 24:1 slope to clear

Airport Ownership and Management from official FAA records

Ownership: Publicly-owned
Owner: CLAY COUNTY COMMISSION
P. O. BOX 187
ASHLAND, AL 36251
Phone (256) 354-7888
Manager: CLAY COUNTY COMMISSION
375 AIRPORT ROAD
ASHLAND, AL 36251
Phone (256) 354-7888
CHAIRMAN, CLAY COUNTY COMMISSION, ROY JOHNSON.

Airport Operational Statistics

Aircraft based on the field: 7
Single engine airplanes: 6
Multi engine airplanes: 1
    
Aircraft operations: avg 55/week *
87% transient general aviation
10% local general aviation
3% military
* for 12-month period ending 06 July 2017

Instrument Procedures

There are no published instrument procedures at 26A.

Some nearby airports with instrument procedures:

KANB - Anniston Regional Airport (18 nm N)
KASN - Talladega Municipal Airport (21 nm NW)
KALX - Thomas C Russell Field Airport (23 nm S)
KSCD - Merkel Field Sylacauga Municipal Airport (26 nm W)
KPLR - St Clair County Airport (28 nm NW)
 
Loc | Ops | Rwys | IFR | FBO | Links
Com | Nav | Svcs | Stats | Notes

AirNav Hotels Sweepstakes
 
Area around 26A (Ashland/Lineville Airport)
 
Road maps at: MapQuest Bing Google
 
Aerial photo
No photo
 
Sectional chart

 
Airport distance calculator
Flying to Ashland/Lineville Airport? Find the distance to fly.

From to 26A

Sunrise and sunset
Times for 25-Apr-2018
 Local
(UTC-5)
 Zulu
(UTC)
Morning civil twilight05:3610:36
Sunrise06:0211:02
Sunset19:2000:20
Evening civil twilight19:4600:46

Current date and time
Zulu (UTC)  25-Apr-2018 08:19:10
Local (UTC-5)  25-Apr-2018 03:19:10
 
METAR
KANB 
18nm N 
250804Z AUTO 23007KT 10SM SCT021 13/12 A2993 RMK AO2 T01330117
KASN 
21nm NW 
250755Z AUTO 00000KT 10SM SCT050 14/12 A2994 RMK AO2 T01350123
KALX 
24nm S 
250755Z AUTO 00000KT 10SM CLR 13/13 A2993 RMK AO2 T01260126
KSCD 
26nm W 
250755Z AUTO 00000KT 10SM BKN021 12/12 A2995 RMK AO2 T01200120
KPLR 
28nm NW 
250755Z AUTO 00000KT 7SM CLR 11/11 A2994 RMK A01
TAF
KANB 
18nm N 
250520Z 2506/2606 25005KT P6SM SCT035 OVC060 FM251000 26005KT P6SM BKN025 FM251100 26005KT P6SM OVC015 TEMPO 2511/2514 5SM BR OVC008 FM251600 30008KT P6SM BKN025 FM251900 31008KT P6SM BKN040
KASN 
21nm NW 
250520Z 2506/2606 25005KT P6SM SCT035 OVC060 FM251000 26005KT P6SM BKN025 FM251100 26005KT P6SM OVC015 TEMPO 2511/2514 5SM BR OVC008 FM251600 30008KT P6SM BKN025 FM251900 31008KT P6SM BKN040
NOTAMs
Click for the latest NOTAMs
NOTAMs are issued by the DoD/FAA and will open in a separate window not controlled by AirNav.

 

 
 

Would you like to see your business listed on this page?

 If your business provides an interesting product or service to pilots, flight crews, aircraft, or users of the Ashland/Lineville Airport, you should consider listing it here.  To start the listing process, click on the button below
 
Add a business
 

Other Pages about Ashland/Lineville Airport

Update a link
 
Copyright © AirNav, LLC. All rights reserved. Privacy Policy  Contact